Weather in Kotik

Russia / Irkutsk Oblast     54°38′57″N   100°27′18″E
temp.,
°C
wind,
m/s
gust,
m/s
humid.,
%
clouds,
%
prec.,
mm/h
press.,
hPa
HPBL,
m
7 may, fri
fri723:00+2n389345 0.1 1014356
02:00+1nnw2690100 0.1 1015141
05:00+1ene1290100 0.0 101679
08:00+1ese2385100 0.0 1016263
11:00+5ese3457100 0.0 1015797
14:00+9ese4441100 0.0 10121135
17:00+10se453989 0.0 10111264
20:00+8se3752100 0.0 1010250
8 may, sat
sat823:00+6s31169100 0.0 1010440
02:00+4sse41091100 5.1 1009418
05:00+4s2496100 3.5 1011227
08:00+7nw511827 3.6 1013848
11:00+11wnw6105529 0.2 10121805
14:00+11wnw685593 0.4 10121614
17:00+12nw695296 0.4 10111869
20:00+9nw486879 0.8 1013736
9 may, sun
sun923:00+7w3683100 0.0 1014187
02:00+5sw2589100 0.0 1013106
05:00+5sw41190100 0.0 1011303
08:00+6sw4988100 1.1 1010964
11:00+8wnw4766100 1.1 10101074
14:00+8wnw4570100 1.4 10101188
17:00+9wnw795759 0.9 10101648
20:00+6nw596711 1.0 1012969
10 may, mon
mon1023:00+2w388370 0.0 1015311
02:00+1w4108573 0.0 1015435
05:00+1wsw41197100 1.6 1013490
08:00+1nw51499100 6.5 1014723
11:00+2nnw41099100 6.1 1016852
14:00+3nnw499896 9.1 1018608
17:00+4nnw4896100 0.3 1019699
20:00+5nw258999 0.3 1019267
11 may, tue
tue1123:00+2wnw4109652 0.0 1020230
02:000wnw27966 0.0 1019123
05:00−1wnw229623 0.0 101922
08:00+4nnw128839 0.0 1018190
11:00+8ene227458 0.1 1016656
14:00+10ene115580 0.1 10141481
17:00+11n2254100 0.0 10131202
20:00+8nne37755 0.1 1013228